Time,TemperatureF,DewpointF,PressureIn,WindDirection,WindDirectionDegrees,WindSpeedMPH,WindSpeedGustMPH,Humidity,HourlyPrecipIn,Conditions,Clouds,dailyrainin,SoftwareType,DateUTC
2013-03-29 00:02:00,30.0,27.0,30.15,SE,125,2.0,-999.0,88,-99.99,,,-99.99,,2013-03-29 06:02:00,
2013-03-29 00:12:00,30.0,27.0,30.15,SE,125,2.0,-999.0,88,-99.99,,,-99.99,,2013-03-29 06:12:00,
2013-03-29 00:23:00,30.0,27.0,30.15,SE,125,4.0,-999.0,88,-99.99,,,-99.99,,2013-03-29 06:23:00,
2013-03-29 00:32:00,31.0,28.0,30.15,SE,128,7.0,-999.0,88,-99.99,,,-99.99,,2013-03-29 06:32:00,
2013-03-29 00:42:00,31.0,28.0,30.15,SE,128,7.0,-999.0,88,-99.99,,,-99.99,,2013-03-29 06:42:00,
2013-03-29 00:52:00,31.0,28.0,30.15,SE,128,7.0,-999.0,88,-99.99,,,-99.99,,2013-03-29 06:52:00,
2013-03-29 01:03:00,32.0,29.0,30.15,SE,130,6.0,-999.0,88,-99.99,,,-99.99,,2013-03-29 07:03:00,
2013-03-29 01:12:00,32.0,29.0,30.15,SE,130,6.0,-999.0,88,-99.99,,,-99.99,,2013-03-29 07:12:00,
2013-03-29 01:22:00,32.0,29.0,30.15,SE,130,5.0,-999.0,88,-99.99,,,-99.99,,2013-03-29 07:22:00,
2013-03-29 01:32:00,31.0,28.0,30.14,SE,130,4.0,-999.0,87,-99.99,,,-99.99,,2013-03-29 07:32:00,
2013-03-29 01:42:00,31.0,28.0,30.14,SE,130,4.0,-999.0,87,-99.99,,,-99.99,,2013-03-29 07:42:00,
2013-03-29 01:52:00,31.0,28.0,30.14,SE,130,5.0,-999.0,88,-99.99,,,-99.99,,2013-03-29 07:52:00,
2013-03-29 02:02:00,32.0,29.0,30.14,SE,130,5.0,-999.0,88,-99.99,,,-99.99,,2013-03-29 08:02:00,
2013-03-29 02:12:00,32.0,29.0,30.14,SE,130,5.0,-999.0,88,-99.99,,,-99.99,,2013-03-29 08:12:00,
2013-03-29 02:22:00,32.0,29.0,30.14,SE,130,5.0,-999.0,88,-99.99,,,-99.99,,2013-03-29 08:22:00,
2013-03-29 02:32:00,32.0,29.0,30.13,SE,130,6.0,-999.0,88,-99.99,,,-99.99,,2013-03-29 08:32:00,
2013-03-29 02:42:00,32.0,29.0,30.13,SE,130,6.0,-999.0,88,-99.99,,,-99.99,,2013-03-29 08:42:00,
2013-03-29 02:52:00,32.0,29.0,30.13,SE,130,5.0,-999.0,88,-99.99,,,-99.99,,2013-03-29 08:52:00,
2013-03-29 03:02:00,31.0,28.0,30.13,SE,130,3.0,-999.0,88,-99.99,,,-99.99,,2013-03-29 09:02:00,
2013-03-29 03:13:00,31.0,28.0,30.13,SE,130,3.0,-999.0,88,-99.99,,,-99.99,,2013-03-29 09:13:00,
2013-03-29 03:22:00,31.0,28.0,30.12,SE,130,3.0,-999.0,88,-99.99,,,-99.99,,2013-03-29 09:22:00,
2013-03-29 03:33:00,31.0,28.0,30.12,SE,130,2.0,-999.0,88,-99.99,,,-99.99,,2013-03-29 09:33:00,
2013-03-29 03:42:00,31.0,28.0,30.12,SE,130,2.0,-999.0,88,-99.99,,,-99.99,,2013-03-29 09:42:00,
2013-03-29 03:52:00,31.0,28.0,30.11,SE,130,2.0,-999.0,88,-99.99,,,-99.99,,2013-03-29 09:52:00,
2013-03-29 04:03:00,31.0,28.0,30.11,SE,130,2.0,-999.0,88,-99.99,,,-99.99,,2013-03-29 10:03:00,
2013-03-29 04:12:00,31.0,28.0,30.11,SE,130,2.0,-999.0,88,-99.99,,,-99.99,,2013-03-29 10:12:00,
2013-03-29 04:22:00,31.0,28.0,30.10,SE,130,1.0,-999.0,89,-99.99,,,-99.99,,2013-03-29 10:22:00,
2013-03-29 04:33:00,31.0,28.0,30.10,SE,130,5.0,-999.0,89,-99.99,,,-99.99,,2013-03-29 10:33:00,
2013-03-29 04:42:00,31.0,28.0,30.10,SE,130,5.0,-999.0,89,-99.99,,,-99.99,,2013-03-29 10:42:00,
2013-03-29 04:52:00,32.0,29.0,30.09,SE,130,4.0,-999.0,89,-99.99,,,-99.99,,2013-03-29 10:52:00,
2013-03-29 05:03:00,32.0,29.0,30.09,SE,130,4.0,-999.0,89,-99.99,,,-99.99,,2013-03-29 11:03:00,
2013-03-29 05:12:00,32.0,29.0,30.09,SE,130,4.0,-999.0,89,-99.99,,,-99.99,,2013-03-29 11:12:00,
2013-03-29 05:23:00,31.0,28.0,30.09,SE,130,3.0,-999.0,89,-99.99,,,-99.99,,2013-03-29 11:23:00,
2013-03-29 05:32:00,31.0,28.0,30.09,SE,130,4.0,-999.0,89,-99.99,,,-99.99,,2013-03-29 11:32:00,
2013-03-29 05:42:00,31.0,28.0,30.09,SE,130,4.0,-999.0,89,-99.99,,,-99.99,,2013-03-29 11:42:00,
2013-03-29 05:52:00,32.0,29.0,30.08,SE,130,4.0,-999.0,89,-99.99,,,-99.99,,2013-03-29 11:52:00,
2013-03-29 06:03:00,32.0,29.0,30.08,SE,130,7.0,-999.0,89,-99.99,,,-99.99,,2013-03-29 12:03:00,
2013-03-29 06:12:00,32.0,29.0,30.08,SE,130,7.0,-999.0,89,-99.99,,,-99.99,,2013-03-29 12:12:00,
2013-03-29 06:22:00,32.0,29.0,30.08,SE,131,7.0,-999.0,89,-99.99,,,-99.99,,2013-03-29 12:22:00,
2013-03-29 06:32:00,32.0,29.0,30.07,SE,137,9.0,-999.0,89,-99.99,,,-99.99,,2013-03-29 12:32:00,
2013-03-29 06:42:00,32.0,29.0,30.07,SE,137,9.0,-999.0,89,-99.99,,,-99.99,,2013-03-29 12:42:00,
2013-03-29 06:52:00,32.0,29.0,30.06,SE,138,8.0,-999.0,89,-99.99,,,-99.99,,2013-03-29 12:52:00,
2013-03-29 07:03:00,32.0,29.0,30.06,SE,133,9.0,-999.0,89,-99.99,,,-99.99,,2013-03-29 13:03:00,
2013-03-29 07:12:00,32.0,29.0,30.06,SE,133,9.0,-999.0,89,-99.99,,,-99.99,,2013-03-29 13:12:00,
2013-03-29 07:22:00,32.0,29.0,30.07,SE,130,10.0,-999.0,89,-99.99,,,-99.99,,2013-03-29 13:22:00,
2013-03-29 07:32:00,32.0,29.0,30.07,SE,130,5.0,-999.0,89,-99.99,,,-99.99,,2013-03-29 13:32:00,
2013-03-29 07:42:00,32.0,29.0,30.07,SE,130,5.0,-999.0,89,-99.99,,,-99.99,,2013-03-29 13:42:00,
2013-03-29 07:52:00,32.0,29.0,30.05,ESE,123,8.0,-999.0,89,-99.99,,,-99.99,,2013-03-29 13:52:00,
2013-03-29 08:03:00,32.0,29.0,30.05,SE,128,9.0,-999.0,89,-99.99,,,-99.99,,2013-03-29 14:03:00,
2013-03-29 08:12:00,32.0,29.0,30.05,SE,128,9.0,-999.0,89,-99.99,,,-99.99,,2013-03-29 14:12:00,
2013-03-29 08:22:00,32.0,29.0,30.05,SE,127,4.0,-999.0,89,-99.99,,,-99.99,,2013-03-29 14:22:00,
2013-03-29 08:32:00,33.0,30.0,30.04,ESE,117,4.0,-999.0,89,-99.99,,,-99.99,,2013-03-29 14:32:00,
2013-03-29 08:42:00,33.0,30.0,30.04,ESE,117,4.0,-999.0,89,-99.99,,,-99.99,,2013-03-29 14:42:00,
2013-03-29 08:52:00,33.0,30.0,30.05,ESE,116,3.0,-999.0,89,-99.99,,,-99.99,,2013-03-29 14:52:00,
2013-03-29 09:02:00,34.0,31.0,30.05,ESE,116,3.0,-999.0,89,-99.99,,,-99.99,,2013-03-29 15:02:00,
2013-03-29 09:12:00,34.0,31.0,30.05,ESE,116,3.0,-999.0,89,-99.99,,,-99.99,,2013-03-29 15:12:00,
2013-03-29 09:22:00,35.0,32.0,30.03,ESE,116,3.0,-999.0,89,-99.99,,,-99.99,,2013-03-29 15:22:00,
2013-03-29 09:33:00,36.0,32.0,30.03,ESE,116,3.0,-999.0,86,-99.99,,,-99.99,,2013-03-29 15:33:00,
2013-03-29 09:43:00,36.0,32.0,30.03,ESE,116,3.0,-999.0,86,-99.99,,,-99.99,,2013-03-29 15:43:00,
2013-03-29 09:52:00,37.0,33.0,30.04,ESE,116,0.0,-999.0,86,-99.99,,,-99.99,,2013-03-29 15:52:00,
2013-03-29 10:03:00,38.0,34.0,30.04,ESE,116,0.0,-999.0,84,-99.99,,,-99.99,,2013-03-29 16:03:00,
2013-03-29 10:13:00,38.0,34.0,30.04,ESE,116,0.0,-999.0,84,-99.99,,,-99.99,,2013-03-29 16:13:00,
2013-03-29 10:23:00,39.0,34.0,30.04,ESE,119,1.0,-999.0,82,-99.99,,,-99.99,,2013-03-29 16:23:00,
2013-03-29 10:32:00,39.0,34.0,30.04,North,355,3.0,-999.0,83,-99.99,,,-99.99,,2013-03-29 16:32:00,
2013-03-29 10:42:00,39.0,34.0,30.04,North,355,3.0,-999.0,83,-99.99,,,-99.99,,2013-03-29 16:42:00,
2013-03-29 10:52:00,39.0,34.0,30.06,NW,313,9.0,-999.0,82,-99.99,,,-99.99,,2013-03-29 16:52:00,
2013-03-29 11:03:00,38.0,32.0,30.06,NW,315,10.0,-999.0,79,-99.99,,,-99.99,,2013-03-29 17:03:00,
2013-03-29 11:12:00,38.0,32.0,30.06,NW,315,10.0,-999.0,79,-99.99,,,-99.99,,2013-03-29 17:12:00,
2013-03-29 11:22:00,35.0,30.0,30.07,NW,319,10.0,-999.0,81,-99.99,,,-99.99,,2013-03-29 17:22:00,
2013-03-29 11:33:00,34.0,30.0,30.06,NW,319,5.0,-999.0,84,-99.99,,,-99.99,,2013-03-29 17:33:00,
2013-03-29 11:42:00,34.0,30.0,30.06,NW,319,5.0,-999.0,84,-99.99,,,-99.99,,2013-03-29 17:42:00,
2013-03-29 11:52:00,37.0,33.0,30.06,NW,319,4.0,-999.0,86,-99.99,,,-99.99,,2013-03-29 17:52:00,
2013-03-29 12:02:00,37.0,33.0,30.06,NW,319,4.0,-999.0,86,-99.99,,,-99.99,,2013-03-29 18:02:00,
2013-03-29 12:12:00,37.0,33.0,30.06,NW,319,4.0,-999.0,86,-99.99,,,-99.99,,2013-03-29 18:12:00,
2013-03-29 12:22:00,41.0,36.0,30.05,NW,323,5.0,-999.0,81,-99.99,,,-99.99,,2013-03-29 18:22:00,
2013-03-29 12:32:00,43.0,38.0,30.05,NW,312,4.0,-999.0,82,-99.99,,,-99.99,,2013-03-29 18:32:00,
2013-03-29 12:42:00,43.0,38.0,30.05,NW,312,4.0,-999.0,82,-99.99,,,-99.99,,2013-03-29 18:42:00,
2013-03-29 12:52:00,45.0,39.0,30.04,NW,312,4.0,-999.0,78,-99.99,,,-99.99,,2013-03-29 18:52:00,
2013-03-29 13:02:00,46.0,38.0,30.04,NNW,339,6.0,-999.0,74,-99.99,,,-99.99,,2013-03-29 19:02:00,
2013-03-29 13:12:00,46.0,39.0,30.03,NNW,341,5.0,-999.0,75,-99.99,,,-99.99,,2013-03-29 19:12:00,
2013-03-29 13:23:00,46.0,39.0,30.03,NNW,341,5.0,-999.0,75,-99.99,,,-99.99,,2013-03-29 19:23:00,
2013-03-29 13:32:00,46.0,38.0,30.03,North,355,5.0,-999.0,73,-99.99,,,-99.99,,2013-03-29 19:32:00,
2013-03-29 13:42:00,46.0,38.0,30.03,North,355,5.0,-999.0,73,-99.99,,,-99.99,,2013-03-29 19:42:00,
2013-03-29 13:52:00,47.0,40.0,30.02,North,355,3.0,-999.0,76,-99.99,,,-99.99,,2013-03-29 19:52:00,
2013-03-29 14:02:00,48.0,40.0,30.02,NNE,28,3.0,-999.0,75,-99.99,,,-99.99,,2013-03-29 20:02:00,
2013-03-29 14:12:00,48.0,40.0,30.02,NNE,28,3.0,-999.0,75,-99.99,,,-99.99,,2013-03-29 20:12:00,
2013-03-29 14:22:00,48.0,40.0,30.01,East,84,5.0,-999.0,75,-99.99,,,-99.99,,2013-03-29 20:22:00,
2013-03-29 14:33:00,49.0,41.0,30.01,East,85,6.0,-999.0,73,-99.99,,,-99.99,,2013-03-29 20:33:00,
2013-03-29 14:42:00,49.0,41.0,30.01,East,85,6.0,-999.0,73,-99.99,,,-99.99,,2013-03-29 20:42:00,
2013-03-29 14:52:00,50.0,41.0,30.01,East,89,4.0,-999.0,70,-99.99,,,-99.99,,2013-03-29 20:52:00,
2013-03-29 15:02:00,51.0,42.0,30.01,ESE,104,4.0,-999.0,71,-99.99,,,-99.99,,2013-03-29 21:02:00,
2013-03-29 15:12:00,51.0,42.0,30.01,ESE,104,4.0,-999.0,71,-99.99,,,-99.99,,2013-03-29 21:12:00,
2013-03-29 15:22:00,52.0,42.0,30.01,ESE,104,3.0,-999.0,69,-99.99,,,-99.99,,2013-03-29 21:22:00,
2013-03-29 15:33:00,52.0,41.0,30.01,ENE,70,3.0,-999.0,67,-99.99,,,-99.99,,2013-03-29 21:33:00,
2013-03-29 15:42:00,52.0,41.0,30.01,ENE,70,3.0,-999.0,67,-99.99,,,-99.99,,2013-03-29 21:42:00,
2013-03-29 15:53:00,52.0,41.0,30.01,ENE,62,4.0,-999.0,65,-99.99,,,-99.99,,2013-03-29 21:53:00,
2013-03-29 16:03:00,53.0,42.0,30.01,ENE,62,0.0,-999.0,66,-99.99,,,-99.99,,2013-03-29 22:03:00,
2013-03-29 16:12:00,53.0,42.0,30.01,ENE,62,0.0,-999.0,66,-99.99,,,-99.99,,2013-03-29 22:12:00,
2013-03-29 16:22:00,54.0,42.0,30.00,ENE,62,1.0,-999.0,63,-99.99,,,-99.99,,2013-03-29 22:22:00,
2013-03-29 16:33:00,54.0,41.0,30.01,ENE,62,1.0,-999.0,62,-99.99,,,-99.99,,2013-03-29 22:33:00,
2013-03-29 16:42:00,54.0,41.0,30.01,ENE,62,1.0,-999.0,62,-99.99,,,-99.99,,2013-03-29 22:42:00,
2013-03-29 16:52:00,55.0,41.0,30.01,ENE,61,1.0,-999.0,60,-99.99,,,-99.99,,2013-03-29 22:52:00,
2013-03-29 17:03:00,55.0,40.0,30.01,ENE,58,2.0,-999.0,57,-99.99,,,-99.99,,2013-03-29 23:03:00,
2013-03-29 17:12:00,55.0,40.0,30.01,ENE,58,2.0,-999.0,57,-99.99,,,-99.99,,2013-03-29 23:12:00,
2013-03-29 17:22:00,54.0,39.0,30.01,NE,56,2.0,-999.0,56,-99.99,,,-99.99,,2013-03-29 23:22:00,
2013-03-29 17:32:00,54.0,39.0,30.01,NE,54,3.0,-999.0,56,-99.99,,,-99.99,,2013-03-29 23:32:00,
2013-03-29 17:42:00,54.0,39.0,30.01,NE,54,3.0,-999.0,56,-99.99,,,-99.99,,2013-03-29 23:42:00,
2013-03-29 17:52:00,53.0,39.0,30.01,NE,53,3.0,-999.0,59,-99.99,,,-99.99,,2013-03-29 23:52:00,
2013-03-29 18:03:00,52.0,39.0,30.01,NE,53,1.0,-999.0,61,-99.99,,,-99.99,,2013-03-30 00:03:00,
2013-03-29 18:12:00,52.0,39.0,30.01,NE,53,1.0,-999.0,61,-99.99,,,-99.99,,2013-03-30 00:12:00,
2013-03-29 18:22:00,52.0,40.0,30.00,NE,53,0.0,-999.0,64,-99.99,,,-99.99,,2013-03-30 00:22:00,
2013-03-29 18:32:00,52.0,41.0,30.00,NE,53,0.0,-999.0,65,-99.99,,,-99.99,,2013-03-30 00:32:00,
2013-03-29 18:42:00,52.0,41.0,30.00,NE,53,0.0,-999.0,65,-99.99,,,-99.99,,2013-03-30 00:42:00,
2013-03-29 18:52:00,51.0,41.0,30.01,NE,53,0.0,-999.0,68,-99.99,,,-99.99,,2013-03-30 00:52:00,
2013-03-29 19:02:00,50.0,41.0,30.00,NE,53,0.0,-999.0,70,-99.99,,,-99.99,,2013-03-30 01:02:00,
2013-03-29 19:12:00,50.0,41.0,30.00,NE,53,0.0,-999.0,70,-99.99,,,-99.99,,2013-03-30 01:12:00,
2013-03-29 19:22:00,48.0,40.0,30.00,NE,53,0.0,-999.0,73,-99.99,,,-99.99,,2013-03-30 01:22:00,
2013-03-29 19:32:00,47.0,39.0,30.00,NE,53,0.0,-999.0,73,-99.99,,,-99.99,,2013-03-30 01:32:00,
2013-03-29 19:42:00,47.0,39.0,30.00,NE,53,0.0,-999.0,73,-99.99,,,-99.99,,2013-03-30 01:42:00,
2013-03-29 19:52:00,46.0,38.0,30.00,NE,53,2.0,-999.0,73,-99.99,,,-99.99,,2013-03-30 01:52:00,
2013-03-29 20:02:00,44.0,37.0,30.00,NE,53,1.0,-999.0,75,-99.99,,,-99.99,,2013-03-30 02:02:00,
2013-03-29 20:12:00,44.0,37.0,30.00,NE,53,1.0,-999.0,75,-99.99,,,-99.99,,2013-03-30 02:12:00,
2013-03-29 20:22:00,42.0,35.0,30.01,NE,53,0.0,-999.0,77,-99.99,,,-99.99,,2013-03-30 02:22:00,
2013-03-29 20:32:00,41.0,35.0,30.02,NE,53,0.0,-999.0,78,-99.99,,,-99.99,,2013-03-30 02:32:00,
2013-03-29 20:42:00,41.0,35.0,30.02,NE,53,0.0,-999.0,78,-99.99,,,-99.99,,2013-03-30 02:42:00,
2013-03-29 20:52:00,39.0,34.0,30.02,NE,53,0.0,-999.0,81,-99.99,,,-99.99,,2013-03-30 02:52:00,
2013-03-29 21:02:00,38.0,33.0,30.03,NE,53,0.0,-999.0,83,-99.99,,,-99.99,,2013-03-30 03:02:00,
2013-03-29 21:12:00,37.0,33.0,30.03,NE,53,0.0,-999.0,85,-99.99,,,-99.99,,2013-03-30 03:12:00,
2013-03-29 21:22:00,37.0,33.0,30.03,NE,53,0.0,-999.0,85,-99.99,,,-99.99,,2013-03-30 03:22:00,
2013-03-29 21:33:00,37.0,33.0,30.04,NE,53,0.0,-999.0,85,-99.99,,,-99.99,,2013-03-30 03:33:00,
2013-03-29 21:43:00,37.0,33.0,30.04,NE,53,0.0,-999.0,85,-99.99,,,-99.99,,2013-03-30 03:43:00,
2013-03-29 21:53:00,35.0,31.0,30.04,NE,53,1.0,-999.0,84,-99.99,,,-99.99,,2013-03-30 03:53:00,
2013-03-29 22:02:00,34.0,30.0,30.04,NE,53,2.0,-999.0,85,-99.99,,,-99.99,,2013-03-30 04:02:00,
2013-03-29 22:12:00,34.0,30.0,30.04,NE,53,2.0,-999.0,85,-99.99,,,-99.99,,2013-03-30 04:12:00,
2013-03-29 22:23:00,33.0,30.0,30.05,NE,53,2.0,-999.0,87,-99.99,,,-99.99,,2013-03-30 04:23:00,
2013-03-29 22:32:00,33.0,30.0,30.06,NE,53,2.0,-999.0,87,-99.99,,,-99.99,,2013-03-30 04:32:00,
2013-03-29 22:42:00,33.0,30.0,30.06,NE,53,2.0,-999.0,87,-99.99,,,-99.99,,2013-03-30 04:42:00,
2013-03-29 22:52:00,32.0,29.0,30.06,NE,53,0.0,-999.0,87,-99.99,,,-99.99,,2013-03-30 04:52:00,
2013-03-29 23:02:00,31.0,28.0,30.05,NE,53,0.0,-999.0,88,-99.99,,,-99.99,,2013-03-30 05:02:00,
2013-03-29 23:12:00,31.0,28.0,30.05,NE,53,0.0,-999.0,88,-99.99,,,-99.99,,2013-03-30 05:12:00,
2013-03-29 23:22:00,31.0,28.0,30.05,NE,53,0.0,-999.0,88,-99.99,,,-99.99,,2013-03-30 05:22:00,
2013-03-29 23:32:00,31.0,28.0,30.04,NE,53,0.0,-999.0,89,-99.99,,,-99.99,,2013-03-30 05:32:00,
2013-03-29 23:42:00,31.0,28.0,30.04,NE,53,0.0,-999.0,89,-99.99,,,-99.99,,2013-03-30 05:42:00,
2013-03-29 23:52:00,31.0,28.0,30.05,NE,53,0.0,-999.0,89,-99.99,,,-99.99,,2013-03-30 05:52:00,